Location: Newark
(3.0500°N, 36.0167°E)
Time: 04:01:42
(UTC+00:00)

A-11 Canister half - Pass Details

Date: 02 September 2019
Orbit: 1527 x 1682 km, 47.3° (Epoch: 13 October)

Event Time Altitude Azimuth Distance (km) Brightness Sun altitude
Rises 13:11:30 0° 343° (NNW) 4,920 11.9 36.1°
Reaches altitude 10° 13:15:43 10° 358° (N) 3,932 11.4 35.1°
Maximum altitude 13:23:04 22° 45° (NE) 3,048 10.4 33.3°
Drops below altitude 10° 13:30:18 10° 92° (E) 3,893 10.7 31.5°
Sets 13:34:23 0° 107° (ESE) 4,859 11.1 30.4°
